GFSSGP_sfc_thetae_009.txt.gz
Theta_e
315 307 309 307 300 298 292 295 297 305 312 319 319 315 316 319 311 307 331 332 333 338 342 344 345 348 349 349 349 348 349 348 347 346 345 344 343 342 342 340 338 336 335 335 337 337 342 344 343
313 305 305 301 296 293 296 298 299 311 319 321 321 320 319 315 327 327 328 330 333 336 340 343 343 345 348 349 349 349 349 348 347 345 344 343 342 342 341 340 336 334 335 335 337 339 338 338 337
308 302 303 297 293 292 297 300 312 316 317 317 320 323 322 321 328 328 332 330 333 334 338 342 342 343 345 346 348 349 349 348 347 346 344 344 342 341 341 337 334 335 336 337 337 337 338 338 336
306 303 299 299 294 295 299 306 315 314 315 321 321 316 324 329 330 334 329 332 332 333 338 340 339 341 343 343 343 344 344 344 344 344 343 342 340 339 337 336 335 336 336 337 337 338 337 337 335
301 301 296 296 296 299 302 304 310 310 312 315 318 316 320 330 334 331 332 333 330 331 335 338 337 340 342 341 341 341 341 342 343 342 341 341 339 335 333 332 334 335 336 336 336 335 333 332 331
299 299 295 294 295 295 301 302 309 309 313 315 317 317 320 331 330 331 333 331 331 330 334 336 338 339 340 340 340 339 339 339 339 340 340 339 337 336 335 335 334 333 332 332 332 333 333 333 333
297 295 291 291 292 294 297 298 301 303 305 309 319 313 321 327 331 333 333 332 333 333 333 335 336 336 336 336 336 336 337 337 337 337 336 335 335 333 332 332 331 331 330 329 329 329 329 328 327
297 297 291 291 292 292 297 299 299 302 304 314 317 311 317 328 333 333 334 332 333 335 334 335 335 334 335 335 333 334 335 336 335 334 333 332 332 330 329 326 328 329 328 327 327 326 325 324 324
298 294 291 291 293 295 298 298 300 303 308 305 312 319 318 332 332 333 333 332 333 333 334 335 335 333 333 333 333 333 335 336 335 334 332 331 334 331 328 327 327 327 326 325 324 324 322 320 319
297 294 293 296 296 297 298 298 299 302 306 309 313 317 325 330 331 330 331 330 331 333 335 335 336 335 332 329 333 334 334 337 339 338 336 335 333 330 328 326 325 325 325 323 323 322 319 317 321
298 296 297 297 298 299 299 300 300 301 301 307 307 316 325 328 330 330 331 332 332 334 335 335 336 337 335 332 334 334 334 335 336 337 336 334 332 332 331 329 328 329 324 326 323 324 325 325 324
298 298 299 300 299 299 299 301 299 300 302 306 312 321 325 325 326 329 330 332 332 333 336 337 337 336 337 336 335 334 333 333 333 334 334 334 332 330 328 327 327 328 329 327 326 326 324 323 322
299 299 300 301 299 300 300 300 300 300 304 303 312 320 323 325 326 328 331 332 331 331 334 337 337 335 333 331 333 333 333 333 334 333 333 331 330 329 327 326 326 327 327 326 325 324 319 316 314
302 301 300 301 301 301 300 300 300 302 302 303 310 317 323 325 326 325 324 326 327 328 331 331 330 330 328 328 329 331 331 332 332 333 332 331 330 329 327 326 325 326 326 325 324 319 315 314 313
301 298 299 299 299 300 299 298 298 302 301 301 304 312 319 323 325 325 323 322 323 326 326 325 326 328 327 325 323 322 324 324 328 329 330 328 327 327 326 325 325 325 325 324 320 316 315 312 311
297 297 295 298 300 300 300 296 301 300 301 302 301 303 312 317 318 315 316 312 317 319 320 322 323 325 326 324 324 323 322 321 320 320 322 323 323 323 324 322 322 323 323 322 319 316 312 309 309
295 291 292 295 299 300 300 297 302 302 301 302 301 300 306 311 310 308 308 309 313 317 318 320 322 322 323 321 321 322 321 321 320 319 318 320 320 321 321 320 319 319 318 318 317 314 311 308 308
291 291 293 292 297 300 297 298 300 298 296 298 299 299 302 306 305 305 306 307 309 313 316 319 318 319 318 317 315 314 313 313 313 314 314 315 316 318 319 318 317 317 314 314 312 311 310 308 308
294 292 292 295 297 298 296 296 297 298 298 297 298 300 302 304 303 304 305 307 308 311 313 314 314 314 312 310 310 310 310 310 310 311 311 311 312 313 315 315 316 316 313 313 313 311 309 307 308
294 292 292 295 296 297 296 296 296 298 297 298 300 301 302 303 303 303 305 307 308 310 310 307 306 307 307 307 308 308 308 309 308 309 311 311 310 311 310 312 312 313 312 313 313 310 309 307 308
294 292 292 292 295 296 295 294 295 297 298 299 300 301 302 304 304 304 305 306 306 306 305 305 306 307 308 309 309 309 309 309 309 308 308 309 310 310 310 310 310 311 311 310 313 312 309 307 307
292 295 295 293 293 291 294 289 294 295 296 298 299 300 302 303 304 304 305 305 305 306 308 309 309 309 308 309 307 306 304 303 305 306 306 307 309 309 308 308 308 309 310 309 310 311 310 308 306
295 297 295 294 293 292 293 291 293 295 294 296 299 300 302 302 303 302 304 305 305 307 307 308 308 308 308 307 305 305 304 305 305 305 304 305 306 307 306 305 305 306 307 308 308 308 306 306 304
298 296 293 293 292 288 290 290 291 294 295 296 299 301 301 301 302 303 305 305 306 307 308 308 308 307 308 307 305 304 304 303 303 304 303 304 304 304 303 302 303 302 302 301 301 300 301 300 300
298 292 287 287 287 286 290 289 291 296 296 297 298 299 301 303 303 303 304 304 305 306 306 307 306 306 306 306 303 303 304 304 303 302 302 301 301 301 300 300 301 301 301 301 301 300 299 298 297
294 293 287 280 283 285 290 287 291 297 299 299 299 300 300 301 303 303 303 304 304 305 306 306 305 305 306 306 303 303 303 302 301 301 301 301 299 299 300 301 301 301 301 301 301 300 295 294 293
294 291 293 286 279 285 288 292 295 298 298 299 298 299 299 300 302 303 304 305 305 305 306 305 305 305 305 305 302 302 301 300 300 300 299 298 297 299 301 301 301 301 301 300 298 298 294 292 291
297 297 289 289 282 280 286 287 290 293 295 296 297 298 300 302 303 304 305 305 305 306 305 306 306 304 304 303 300 300 300 300 298 296 295 296 297 300 300 299 297 297 297 297 296 296 296 295 295
294 292 291 291 288 284 281 287 295 295 296 296 297 298 300 302 303 304 304 305 304 305 305 305 305 303 303 299 299 299 298 295 293 294 295 295 298 297 295 295 295 294 293 294 295 294 294 293 293
295 292 291 286 283 286 284 285 296 297 298 298 298 299 301 302 303 303 303 304 304 304 304 304 303 301 299 298 299 297 294 292 292 293 294 295 295 295 294 294 294 293 293 294 292 291 291 290 289

GFSSGP_sfc_thetae_015.txt.gz
Theta_e
322 319 320 317 306 307 305 307 314 313 314 321 320 319 317 321 320 314 333 332 339 344 346 348 349 350 349 349 348 349 348 348 347 345 344 345 343 343 341 339 337 338 338 338 339 341 341 341 339
320 316 316 313 304 302 304 309 310 315 317 319 319 318 316 316 327 329 327 332 338 342 345 347 346 350 350 350 350 349 348 346 345 345 344 344 343 342 340 337 337 338 339 340 339 338 340 338 336
319 315 309 307 305 302 303 309 314 317 319 319 317 321 320 318 326 328 330 332 335 338 343 345 344 346 349 349 349 349 347 347 346 346 345 344 342 341 338 336 337 337 339 339 339 339 338 338 336
314 311 311 304 304 307 308 313 316 315 318 320 316 315 326 330 328 331 330 330 331 333 338 340 343 344 345 344 345 345 344 344 344 344 343 342 341 337 335 336 337 338 338 338 338 336 334 333 332
314 312 305 304 305 309 313 315 316 315 316 316 316 312 321 332 334 332 330 328 327 329 332 337 340 342 342 341 341 341 342 342 342 342 341 340 338 338 337 337 336 335 335 335 336 336 335 335 334
309 312 304 301 303 309 312 315 313 312 314 313 314 316 322 333 330 331 330 327 328 329 332 332 337 339 340 339 339 339 339 339 339 340 340 338 337 335 335 334 334 333 332 332 332 332 331 330 329
307 308 304 304 303 305 308 313 310 310 310 310 315 312 322 326 330 330 327 327 328 330 331 333 334 336 338 338 338 337 337 336 336 336 336 336 334 333 332 331 331 331 330 329 328 328 327 326 326
310 311 303 303 301 301 306 307 310 309 311 316 317 311 316 325 329 328 327 327 330 331 333 335 336 335 337 338 336 336 336 336 334 333 332 332 334 332 330 329 329 328 327 326 325 325 324 324 324
311 303 299 300 300 301 306 304 308 312 310 311 313 317 322 328 329 327 326 327 330 331 335 336 335 335 335 333 335 333 335 336 335 335 333 333 335 334 333 328 327 326 325 324 324 322 321 323 323
307 303 301 304 305 304 305 305 305 307 307 309 313 317 326 328 327 325 324 325 328 331 333 336 339 336 335 331 335 335 333 335 336 337 337 335 336 335 332 330 328 328 327 326 325 325 325 324 324
306 303 304 304 305 306 305 304 306 305 304 309 310 314 323 325 326 326 326 325 326 331 331 334 342 341 336 333 332 333 333 334 335 337 338 336 335 335 333 332 331 331 328 327 326 326 326 326 325
302 305 305 305 305 305 304 307 305 306 307 310 312 317 322 323 324 325 325 324 326 328 330 334 341 342 339 334 331 331 332 333 332 334 335 334 331 332 331 328 327 327 325 326 325 325 326 326 324
304 304 305 306 305 306 307 305 306 305 309 311 314 317 320 322 323 324 326 326 327 327 330 333 338 344 337 336 332 333 333 333 333 334 332 332 330 330 328 327 325 324 324 323 323 323 322 323 321
308 307 307 307 307 307 305 306 307 308 310 310 312 315 318 320 322 323 325 326 327 329 330 333 337 343 337 330 332 332 334 332 332 330 329 330 330 330 327 326 324 323 323 322 322 322 322 321 319
309 304 307 307 308 306 308 304 305 310 311 309 310 314 317 318 320 322 325 325 327 328 330 333 337 342 335 330 329 329 328 326 327 327 328 327 328 328 327 325 324 323 325 326 324 323 322 320 319
305 306 301 306 307 308 308 302 307 310 310 309 311 311 314 317 319 322 324 325 327 327 327 330 336 338 334 328 328 328 327 327 325 326 327 326 326 326 326 323 323 325 325 323 322 320 319 319 318
304 300 300 302 307 307 306 303 309 311 310 309 311 312 312 315 319 323 326 325 324 325 324 327 336 335 330 327 326 327 327 326 324 324 323 323 323 323 323 322 323 327 323 324 322 321 321 318 318
298 298 300 299 304 304 303 304 307 309 308 309 311 312 312 313 318 323 321 321 320 323 325 328 333 330 327 326 325 322 322 321 322 320 320 321 321 321 321 320 322 322 319 320 321 322 321 321 319
301 299 299 302 304 302 302 303 305 308 309 309 311 311 311 313 320 319 319 320 322 326 327 328 326 321 321 320 317 317 317 318 319 320 320 320 319 318 317 316 317 318 316 318 320 319 319 317 320
301 299 299 302 303 303 303 303 305 306 307 309 310 311 313 314 314 315 318 319 320 320 320 319 318 318 318 318 318 319 318 318 319 319 318 318 316 315 314 314 313 314 312 316 317 317 315 316 318
302 300 300 299 303 305 303 301 302 305 307 309 310 311 311 311 311 313 315 317 319 318 318 317 317 318 317 318 318 317 317 317 316 315 315 315 315 314 313 312 312 313 314 312 315 315 314 311 314
299 303 302 301 300 296 304 296 301 303 304 306 308 309 310 311 312 313 314 315 317 317 318 317 317 316 316 317 315 315 313 311 313 314 314 313 313 311 310 310 312 313 312 312 313 311 314 312 309
301 305 302 302 301 300 300 296 299 303 301 303 306 308 310 311 312 312 313 315 316 317 318 318 316 316 316 316 315 313 312 312 313 312 311 310 310 310 308 309 311 310 310 310 310 309 309 308 307
306 304 303 303 301 294 299 297 299 301 302 303 306 308 309 311 312 312 313 314 315 317 318 317 316 315 315 315 315 312 311 310 309 309 307 307 307 306 307 306 308 309 308 308 308 306 305 302 302
305 301 295 293 293 293 299 295 299 303 304 305 305 308 310 312 312 311 312 313 313 314 315 316 315 314 315 313 313 313 311 310 308 307 306 304 303 304 306 306 307 306 307 306 304 302 300 298 297
301 301 295 286 289 292 298 292 299 305 307 307 308 308 309 310 311 311 311 313 313 313 315 315 314 313 314 314 313 312 311 309 307 305 303 302 302 304 304 305 306 304 304 302 300 298 296 295 296
301 298 301 295 293 292 295 298 303 305 305 305 306 307 308 308 309 310 311 312 312 313 313 314 313 312 312 312 312 310 308 307 304 303 302 302 303 303 304 304 303 301 299 300 300 299 298 298 297
303 303 296 298 286 283 291 292 295 300 302 303 304 305 307 308 309 310 311 312 312 312 313 313 312 310 310 308 308 307 306 305 303 302 301 301 302 302 301 301 300 299 298 298 298 296 297 296 297
301 300 298 297 295 288 286 291 301 301 302 302 304 305 307 308 309 309 310 311 311 312 311 310 309 308 307 307 306 305 304 303 302 301 301 300 300 300 299 299 298 297 296 296 296 295 296 294 294
302 299 298 292 289 293 291 290 303 303 303 304 304 306 307 308 308 308 308 308 309 309 309 307 306 305 305 304 303 302 302 301 301 300 298 299 298 299 299 299 296 296 296 296 295 295 294 293 292

GFSSGP_sfc_thetae_018.txt.gz
Theta_e
321 316 316 314 303 303 300 306 314 312 313 317 319 315 315 320 318 310 328 338 343 342 346 347 349 350 350 351 351 350 350 349 348 347 347 345 344 343 340 339 340 340 341 341 340 341 342 340 338
315 317 314 309 300 298 302 310 309 312 315 316 318 316 316 315 324 322 327 338 342 344 345 347 348 349 350 350 351 349 348 347 347 346 345 344 343 342 339 338 339 340 340 340 340 341 341 339 338
317 316 307 304 301 298 301 309 313 314 316 317 315 322 319 317 323 323 331 337 339 341 343 345 345 347 349 349 349 349 348 348 347 347 345 344 342 338 337 338 338 339 339 338 338 337 335 335 334
313 310 307 299 299 306 306 312 314 313 317 318 317 315 322 327 324 326 330 332 333 337 340 340 342 344 346 346 346 345 345 345 345 345 343 342 339 337 337 338 338 337 336 337 337 336 335 335 335
313 309 300 300 304 309 312 313 314 312 313 314 315 316 319 326 326 325 326 327 327 332 336 337 339 341 343 343 342 343 343 343 343 342 340 339 338 338 337 336 335 334 334 334 335 335 334 332 331
304 307 298 298 303 308 311 314 313 314 314 311 314 317 320 327 325 324 325 325 326 329 331 332 340 340 340 341 341 340 340 340 341 341 339 337 336 336 335 334 334 332 331 331 330 330 330 330 329
303 301 298 303 303 305 309 313 309 309 310 310 315 314 321 323 326 325 324 324 327 327 328 331 332 336 338 337 338 338 338 337 338 337 337 336 335 335 333 332 332 330 329 328 327 326 327 327 327
306 304 299 303 301 301 307 309 311 309 309 315 317 312 314 323 326 324 323 324 326 329 331 332 333 333 334 333 336 336 337 336 336 335 334 334 334 334 332 333 330 328 326 326 325 325 325 325 325
310 301 300 300 301 301 305 303 307 311 310 311 315 317 322 325 325 323 322 323 326 328 333 333 332 333 334 334 334 336 337 336 335 335 333 332 333 332 331 329 330 328 327 327 326 325 325 325 325
305 301 300 304 304 303 304 305 305 306 306 308 313 322 325 324 323 321 320 322 325 329 331 334 335 334 333 328 332 335 335 334 335 335 335 335 334 332 331 331 329 330 329 329 328 328 327 325 319
306 300 303 303 305 306 304 303 307 305 303 308 308 318 322 322 322 321 321 323 325 328 330 334 340 337 335 333 328 332 332 333 336 338 334 334 332 334 331 330 329 327 328 326 325 325 322 323 321
302 304 304 304 305 304 303 305 304 306 306 311 313 317 322 321 321 322 322 323 324 327 328 336 340 340 336 333 331 331 331 331 332 332 334 331 329 330 327 326 323 323 321 321 321 320 322 321 322
303 303 304 305 305 305 306 304 305 305 309 311 315 316 319 320 321 323 325 324 324 325 329 332 339 341 338 333 333 333 332 333 331 331 331 330 327 327 327 325 324 322 321 320 319 318 318 319 318
306 305 304 305 305 305 303 305 306 307 308 309 312 315 318 320 321 322 323 324 325 327 330 334 337 342 337 330 330 331 332 332 332 328 327 328 327 327 325 323 323 322 321 320 319 317 318 317 317
308 303 305 306 306 305 307 303 303 308 309 307 309 312 316 318 320 321 324 326 327 327 329 332 329 341 335 329 329 328 327 323 324 326 326 325 325 324 324 322 322 322 322 321 319 319 317 316 317
304 305 300 305 307 307 305 299 305 309 308 307 308 310 313 316 318 321 324 327 326 327 324 327 333 339 334 330 327 326 326 325 324 324 325 324 324 323 322 321 321 322 322 320 319 317 316 315 314
303 297 300 302 307 307 305 301 306 310 309 308 309 310 311 314 317 320 323 325 328 325 325 326 336 335 333 328 325 326 325 323 324 322 321 321 321 323 320 318 319 321 318 317 317 315 315 313 313
296 298 299 299 304 303 302 302 307 309 308 308 309 310 311 312 315 322 321 321 321 326 326 328 330 329 328 326 324 322 321 321 321 320 320 320 318 319 317 316 317 318 314 314 313 314 314 313 313
301 299 298 302 304 301 301 302 305 307 308 309 310 313 312 314 316 318 319 322 324 327 324 326 322 322 320 319 316 317 316 317 318 318 320 318 317 316 314 312 312 311 310 310 311 310 309 309 311
301 299 299 302 304 301 301 301 304 306 307 309 309 310 312 312 313 316 317 318 319 319 319 318 318 318 317 317 317 317 316 317 317 318 317 317 315 314 312 312 310 309 308 307 307 308 308 307 309
301 299 300 299 302 304 301 299 301 305 307 309 310 312 312 311 311 313 315 317 319 318 318 316 317 317 317 317 316 315 316 315 314 313 313 315 314 312 311 310 308 308 308 306 305 305 305 304 305
298 304 302 300 299 294 302 292 299 302 303 305 307 309 309 310 311 313 314 315 316 317 318 317 317 316 316 317 314 314 312 309 312 312 312 311 311 310 308 307 307 306 306 305 305 306 305 304 301
300 304 302 301 299 298 298 295 299 302 300 303 306 308 310 311 312 312 313 314 315 318 318 318 317 316 316 315 315 312 310 310 310 309 309 308 307 306 306 305 304 304 305 304 305 304 302 300 298
305 304 303 302 300 294 297 296 296 299 301 303 306 308 309 310 312 312 314 315 315 318 318 318 316 315 316 314 313 312 310 309 307 307 305 303 303 303 303 304 303 304 304 302 302 300 299 297 297
305 301 295 293 294 292 299 294 298 303 305 305 305 307 310 312 312 312 312 312 314 314 316 315 315 313 314 315 313 312 310 308 305 304 301 300 300 300 300 302 303 302 302 300 299 297 295 295 294
301 300 295 286 288 291 298 292 296 305 306 307 308 308 309 310 311 311 312 312 313 314 314 314 313 311 311 312 311 311 309 306 304 302 300 300 299 300 302 301 302 299 299 299 299 298 296 294 295
300 297 300 296 293 291 293 298 302 304 304 305 305 307 307 309 310 311 312 313 312 312 313 313 311 310 310 310 309 308 306 305 302 301 300 300 300 300 299 300 299 298 298 298 297 296 295 295 295
302 302 295 298 287 284 289 292 294 299 301 303 304 305 306 308 309 310 310 311 311 312 312 312 310 308 308 306 305 304 303 303 302 300 299 299 298 299 298 298 298 298 297 296 295 294 294 295 295
300 298 298 296 295 287 285 289 299 299 302 302 304 305 306 308 308 309 309 310 310 311 309 308 307 305 304 304 304 303 302 301 301 300 298 298 297 297 297 298 297 296 295 295 295 294 293 293 292
301 298 298 293 290 294 292 289 302 303 303 304 304 305 307 307 307 307 308 309 308 307 307 306 304 303 303 303 301 300 300 300 299 298 297 297 296 296 296 295 295 294 294 294 293 292 292 291 290

GFSSGP_sfc_thetae_021.txt.gz
Theta_e
315 311 311 306 297 295 293 299 309 307 306 315 318 317 314 316 312 306 335 340 342 342 347 348 347 349 350 350 350 349 349 347 347 346 347 346 343 341 340 340 341 341 341 341 342 342 342 340 339
315 313 309 302 294 290 294 307 304 306 310 318 317 316 313 310 320 323 330 340 343 344 346 346 347 349 350 349 348 348 348 347 347 346 345 344 342 340 339 339 340 340 340 339 339 338 337 336 335
314 313 300 297 294 291 295 306 306 308 313 315 315 318 316 312 320 324 339 340 342 342 345 345 345 346 348 348 348 348 348 347 346 346 344 342 339 338 338 339 340 338 338 337 337 337 335 335 335
309 305 300 293 292 299 305 307 309 311 314 318 316 312 317 321 320 326 336 337 336 335 338 341 342 344 346 346 346 346 345 345 344 344 341 339 338 338 338 338 336 336 335 336 336 336 335 333 332
310 301 293 292 296 305 307 309 310 309 310 316 318 311 311 319 323 322 330 333 332 332 334 337 339 341 343 344 343 343 343 342 342 342 341 338 338 337 336 335 334 333 332 333 332 332 331 331 330
299 299 292 289 299 305 306 308 312 311 310 317 316 314 312 317 316 318 326 328 331 329 331 334 339 340 340 341 340 339 340 341 341 340 339 337 337 337 335 334 332 331 330 329 328 328 328 329 329
298 295 292 292 298 302 305 308 305 307 306 313 319 311 314 315 316 317 319 325 326 326 326 330 333 336 336 336 336 336 337 337 338 337 337 336 335 335 335 334 332 330 329 327 326 326 327 328 328
301 297 292 294 298 296 304 303 305 306 302 314 319 310 309 315 317 316 319 320 321 324 326 324 328 330 330 331 334 334 334 334 334 334 335 334 333 333 333 333 332 330 329 327 326 327 327 327 327
303 292 292 295 296 296 299 298 301 306 306 312 313 317 318 318 316 315 314 315 319 324 325 326 326 328 327 328 333 334 335 334 333 333 333 331 329 329 329 330 331 331 330 329 328 328 327 326 325
298 292 293 297 298 296 297 298 300 301 303 311 314 319 318 317 315 314 314 316 319 323 325 325 324 326 329 330 330 329 331 331 330 330 329 328 327 328 329 328 330 330 329 329 329 329 328 326 320
296 293 296 298 299 299 296 298 301 300 297 309 312 314 316 316 315 315 315 319 319 324 326 328 326 325 325 323 325 328 328 328 329 329 326 325 327 325 322 323 324 322 327 323 325 323 322 320 319
295 298 299 298 300 298 297 299 298 297 300 309 318 318 317 316 316 315 315 317 319 322 328 330 328 326 325 323 322 323 323 324 326 326 324 322 322 319 320 317 316 317 317 318 316 316 316 316 317
297 297 299 300 301 300 302 299 300 299 303 309 318 319 317 316 316 318 318 321 319 322 328 331 330 327 327 323 323 322 324 323 322 324 323 321 321 319 319 318 317 316 316 314 313 313 314 314 314
300 299 298 298 299 300 299 300 299 299 303 307 315 315 315 316 317 317 317 316 322 321 328 332 331 333 329 324 322 322 322 322 323 320 320 322 319 319 319 316 317 316 316 316 315 313 313 313 314
302 297 299 299 300 299 300 296 298 300 302 304 308 313 313 316 317 317 317 318 320 321 332 329 327 322 330 323 321 320 321 316 317 318 319 320 319 317 316 316 316 317 317 316 315 314 314 312 313
298 297 292 299 301 301 299 292 299 302 301 301 303 304 310 313 315 315 316 317 318 323 326 329 332 322 326 322 318 318 316 316 315 316 317 318 319 317 315 313 313 315 315 314 313 313 312 311 311
295 289 294 296 302 300 297 294 299 301 302 300 299 301 304 308 311 314 314 315 316 316 321 326 330 327 324 320 317 317 317 315 315 313 314 315 316 315 311 311 311 312 312 311 311 310 310 309 309
291 292 293 293 295 297 294 294 298 300 302 301 299 300 302 309 310 314 316 318 318 319 318 318 320 320 320 316 314 313 313 313 313 312 313 312 312 311 309 308 308 308 306 306 306 305 306 306 306
297 294 294 294 299 297 295 294 297 300 300 299 301 306 307 309 311 312 313 314 315 313 314 313 313 311 311 310 308 308 308 309 310 311 311 312 311 310 308 307 306 306 304 304 304 303 303 303 305
297 295 295 297 300 296 293 294 297 301 300 302 305 305 306 308 309 311 312 311 310 309 310 310 310 310 310 309 308 309 308 309 309 310 310 311 308 307 306 304 303 304 303 303 302 301 300 300 302
298 296 295 295 298 296 295 292 296 301 303 305 305 306 306 307 308 310 310 308 308 308 308 309 310 310 309 309 309 308 308 307 307 307 307 306 306 304 303 303 302 302 302 301 300 300 300 299 300
295 301 300 297 294 288 294 285 293 297 299 302 302 301 303 305 308 310 309 308 308 308 309 309 309 309 310 309 307 306 304 303 305 304 304 303 303 302 302 301 301 301 300 299 300 302 299 297 295
298 302 299 298 293 291 293 288 291 297 297 299 301 303 303 304 305 306 307 308 309 309 308 309 309 309 309 309 307 305 304 304 304 303 301 300 300 301 301 301 300 300 300 299 299 298 299 298 297
302 300 299 298 294 284 295 292 293 294 298 300 302 303 304 304 305 306 308 309 308 308 308 308 308 308 309 309 307 305 303 302 300 299 297 297 298 298 299 300 299 299 297 297 297 298 296 295 295
300 295 285 284 283 283 297 293 294 298 301 302 302 302 303 304 303 304 305 308 309 305 306 307 307 306 307 307 306 304 301 300 298 296 295 295 295 295 296 297 298 297 297 296 295 295 296 295 293
297 295 283 281 280 283 295 289 291 301 303 304 304 303 304 304 304 304 304 304 305 306 305 306 306 305 306 305 303 302 301 300 298 297 296 295 295 295 295 296 296 298 297 296 295 294 294 293 292
297 290 296 289 285 281 289 294 299 301 302 303 302 303 302 303 304 305 304 304 304 304 305 304 304 303 304 302 301 300 300 299 297 296 295 295 294 296 295 294 295 298 297 295 294 293 291 291 291
298 298 289 287 280 279 285 289 290 296 299 302 302 300 301 303 303 303 303 304 304 304 304 303 303 301 300 299 300 298 297 297 296 295 294 294 293 294 293 293 294 295 294 294 292 291 292 291 290
295 294 294 292 286 280 277 283 294 297 301 300 300 302 300 300 301 302 303 303 303 303 302 302 299 298 298 297 297 295 295 295 295 295 294 293 293 293 293 294 293 292 292 292 291 291 291 291 290
297 295 295 282 284 283 281 283 297 298 300 299 299 301 301 301 301 301 302 301 301 300 300 299 297 297 297 296 296 295 295 295 294 293 293 293 292 292 292 291 289 289 288 288 288 288 286 285 284

GFSSGP_sfc_thetae_024.txt.gz
Theta_e
315 309 310 306 297 295 291 295 308 306 309 316 318 313 311 313 311 307 335 341 343 343 345 346 347 349 350 350 350 349 349 347 346 345 344 342 341 341 340 340 340 340 340 340 339 339 338 337 336
312 312 308 301 293 290 293 303 308 311 314 316 316 318 317 315 326 329 332 340 343 344 344 345 347 347 348 348 348 348 347 346 345 344 343 342 340 339 339 339 339 339 338 337 336 336 336 336 335
311 311 299 296 292 288 293 302 306 311 316 316 313 316 315 312 326 330 338 342 343 342 344 346 345 346 347 347 347 347 347 346 346 345 342 339 338 338 339 338 337 336 336 336 336 336 335 334 333
309 302 298 292 289 294 303 305 312 313 315 317 314 310 316 323 325 336 340 341 339 340 341 341 342 345 346 347 346 346 345 344 344 342 340 338 339 338 336 336 334 334 333 333 333 333 332 331 331
308 300 293 291 294 303 306 308 312 312 314 313 314 309 311 325 335 335 336 338 335 332 336 339 340 343 344 344 343 344 343 343 341 341 341 338 337 336 335 334 332 331 330 329 329 329 329 329 330
299 298 291 289 296 305 305 309 314 314 312 312 311 310 310 324 327 329 332 331 334 331 333 336 340 341 341 341 341 340 340 340 339 340 339 337 336 336 334 333 331 330 328 327 326 327 327 328 329
297 295 291 290 294 301 304 306 308 313 314 312 314 307 310 314 322 325 326 327 328 329 329 331 333 336 336 336 336 336 338 338 338 337 337 336 335 335 335 333 331 330 327 326 326 328 327 327 328
299 296 291 292 297 298 304 303 304 312 308 319 317 307 306 311 318 323 324 323 323 324 328 326 329 329 329 330 334 334 334 334 335 335 334 333 333 333 334 333 332 331 329 328 328 328 327 327 327
301 293 289 292 295 298 299 300 302 306 310 311 312 312 314 314 317 317 316 316 318 321 322 324 325 326 327 328 331 334 334 334 333 333 332 330 328 327 328 330 330 332 330 329 330 329 328 326 326
297 290 291 296 299 295 297 299 300 306 309 310 311 315 314 314 315 314 314 315 317 320 322 323 324 324 325 329 329 328 330 329 328 329 328 327 325 326 327 328 331 331 330 330 330 330 329 327 319
295 292 295 297 297 298 297 298 300 305 304 311 310 311 312 312 312 313 314 317 319 322 324 324 325 326 324 325 325 325 326 326 327 327 327 325 325 325 325 322 323 321 324 322 322 321 319 319 317
293 296 297 296 297 296 297 298 298 297 306 315 315 314 313 312 312 313 314 316 319 322 324 323 323 324 322 321 323 325 325 325 326 326 323 320 318 316 316 315 314 315 314 316 314 315 314 313 314
295 295 297 298 299 296 298 297 298 297 310 317 316 315 314 314 314 315 315 318 319 323 324 324 324 323 321 321 322 321 322 324 323 322 322 320 318 316 316 316 315 315 314 313 312 312 312 312 313
297 297 296 297 297 298 298 297 298 297 313 315 315 314 315 315 315 315 314 315 319 325 327 328 329 329 326 322 321 321 322 319 321 319 319 320 319 316 317 314 315 314 314 315 313 312 312 312 312
298 294 296 295 296 296 299 294 294 299 314 314 314 314 315 315 316 316 317 315 320 327 330 329 328 325 326 322 320 320 319 318 318 317 318 318 317 315 314 313 311 312 312 311 311 311 311 310 311
296 295 291 296 297 298 297 291 297 298 306 311 312 313 314 314 315 315 314 314 322 329 329 329 329 323 323 324 317 317 314 313 314 315 316 316 316 314 311 309 309 310 309 308 307 307 306 305 305
293 287 291 294 298 297 295 292 297 298 301 302 304 304 306 308 311 314 314 315 318 324 327 324 322 320 323 319 315 315 314 312 312 312 312 314 314 312 308 307 307 306 305 305 305 304 303 302 303
289 290 289 291 294 295 293 293 296 296 297 297 296 304 307 308 309 313 314 315 316 319 323 321 320 320 320 313 310 311 310 310 310 310 309 309 309 308 306 306 304 305 304 303 302 301 302 301 300
296 293 291 291 296 295 293 292 295 297 298 301 304 305 305 306 308 310 310 311 310 311 311 312 311 309 309 309 308 307 306 307 308 309 308 306 306 306 304 302 302 302 301 301 301 301 299 299 300
296 294 292 295 299 294 293 292 296 298 299 303 304 304 304 306 307 308 308 308 308 307 309 308 309 308 307 307 306 307 306 307 306 306 305 304 304 303 303 300 300 300 299 299 298 298 297 298 299
296 293 293 293 295 294 293 291 294 300 303 304 304 305 306 306 305 306 307 307 307 305 307 307 307 307 307 307 306 306 305 305 304 302 301 302 303 302 300 300 299 298 298 298 297 298 297 296 297
293 299 297 295 291 286 292 283 292 296 297 299 300 301 304 307 307 307 306 305 305 305 306 306 307 307 308 307 306 304 302 301 301 300 298 298 300 300 299 300 299 299 299 297 297 299 299 299 295
296 299 297 296 291 290 291 286 289 296 295 297 299 301 303 304 306 305 306 306 306 306 306 306 307 307 307 306 305 304 302 301 300 298 297 298 298 299 299 299 298 297 296 295 295 294 293 294 292
300 298 297 295 292 283 293 288 288 291 295 298 301 301 302 302 303 305 306 307 306 305 305 304 305 306 306 305 303 301 299 298 296 295 295 295 296 296 296 297 297 296 295 294 293 293 292 292 292
297 293 283 283 282 282 295 291 291 296 299 300 300 299 300 301 302 303 305 305 305 303 304 304 304 304 305 303 301 300 299 297 295 295 294 293 294 293 293 294 295 295 295 295 296 294 293 291 290
295 293 282 281 279 282 291 287 290 299 303 303 302 302 303 302 302 302 302 302 303 303 303 303 303 303 303 301 300 299 299 297 296 295 294 294 293 293 293 293 295 295 296 295 293 292 290 290 289
295 289 294 286 283 280 287 291 296 300 300 302 303 304 300 300 300 301 302 301 302 302 302 301 303 301 300 302 299 297 298 297 296 294 293 293 293 295 293 292 293 294 294 293 292 290 289 289 289
295 296 288 285 279 279 283 286 288 294 296 299 298 298 299 301 301 301 301 302 302 302 301 300 300 298 298 297 297 296 295 295 295 293 293 293 292 293 292 291 292 292 292 292 291 289 289 289 288
293 291 291 289 284 279 276 282 292 296 299 296 297 298 299 300 300 301 301 301 301 299 298 297 296 296 296 296 295 294 294 294 294 293 293 293 292 292 291 292 291 288 288 288 287 287 287 286 284
295 293 291 281 283 281 279 281 296 296 297 298 298 299 299 301 301 299 299 298 297 296 295 296 295 295 296 295 295 293 293 293 293 292 293 292 291 292 292 292 288 288 286 286 285 284 284 283 282

GFSSGP_sfc_thetae_027.txt.gz
Theta_e
314 307 308 306 296 294 289 294 307 306 308 313 316 315 313 317 312 306 332 338 343 342 344 346 347 349 349 349 348 348 346 346 345 343 342 341 341 340 339 339 340 339 337 336 336 336 336 336 336
309 310 306 300 293 289 294 301 306 310 314 317 317 318 317 319 328 331 332 342 343 342 343 345 346 348 348 348 348 347 346 345 344 343 342 341 339 339 339 338 337 336 335 335 335 335 335 334 333
309 309 299 295 290 289 293 303 308 312 315 315 313 315 316 322 329 330 336 342 343 341 343 344 344 345 347 347 346 346 346 345 344 342 340 338 338 338 336 336 335 334 334 334 333 332 332 331 330
306 300 298 292 287 293 298 303 311 312 315 316 315 311 316 325 330 335 341 343 340 341 342 341 342 344 346 347 346 345 345 344 343 341 338 338 337 336 335 334 333 332 331 331 330 330 329 329 329
304 298 292 290 291 300 303 308 313 311 312 313 314 310 313 331 337 338 338 339 336 338 340 341 340 343 345 345 344 344 343 342 341 340 339 337 336 335 333 332 331 330 330 328 327 327 327 327 329
296 295 289 290 296 301 303 313 314 311 312 313 313 310 308 331 332 335 337 336 337 336 335 338 341 342 342 343 342 341 341 339 340 340 339 337 336 335 333 331 330 328 327 326 327 327 327 327 328
296 293 290 290 295 300 305 305 311 310 311 311 313 304 312 320 328 331 332 331 332 332 330 332 334 337 338 337 337 337 337 337 337 337 337 336 335 334 334 333 330 328 327 327 328 329 328 328 328
298 295 291 292 296 299 306 304 312 314 311 315 313 305 309 314 324 326 327 326 324 326 327 327 328 329 328 329 334 334 335 335 335 335 334 333 333 333 334 333 332 331 329 329 329 329 328 328 328
297 292 289 291 299 302 307 300 303 311 312 312 312 309 318 318 321 319 316 316 319 323 323 324 325 326 325 326 330 333 334 334 333 333 332 329 326 325 326 329 330 331 330 330 330 330 329 328 327
296 290 292 297 299 299 298 306 308 309 308 308 307 311 315 317 317 314 313 314 316 318 321 322 323 323 324 329 327 326 329 328 327 327 326 326 324 324 326 327 330 331 331 331 330 330 329 326 318
296 293 294 296 298 298 297 300 302 308 304 309 306 308 312 314 314 313 312 315 315 318 320 322 322 322 323 324 325 324 325 325 325 326 325 324 325 323 324 322 320 319 322 318 319 317 317 315 315
293 295 296 296 297 296 295 298 303 298 309 313 311 311 312 312 313 314 313 315 316 318 321 322 323 323 321 322 323 322 323 325 324 325 325 321 317 315 316 314 313 313 312 312 311 311 311 311 312
293 294 296 297 297 295 298 296 297 296 311 313 312 311 311 312 311 314 315 317 318 319 322 321 322 323 323 320 321 322 324 325 325 324 321 319 315 314 314 314 313 312 313 312 311 310 311 310 311
296 294 294 296 296 296 297 295 296 300 311 311 311 310 310 311 312 312 312 315 319 321 322 322 322 322 320 319 319 320 321 322 322 321 320 319 317 314 314 313 312 311 311 310 309 308 307 307 308
296 293 294 294 294 295 298 293 293 301 312 310 310 311 311 312 312 311 312 314 321 323 324 324 324 324 321 319 318 318 319 319 319 317 317 317 316 313 312 309 308 308 307 305 306 305 304 304 305
294 293 289 293 295 296 295 289 294 306 310 309 309 310 310 310 310 310 312 313 320 324 324 325 327 322 322 320 315 314 312 312 312 313 313 312 311 309 306 305 305 305 304 304 303 303 302 301 301
291 286 289 292 296 295 293 290 294 301 310 308 305 303 306 309 310 312 315 316 320 325 324 323 322 322 320 315 314 310 309 310 309 309 308 307 306 306 304 303 302 303 302 302 301 301 300 299 299
287 288 287 289 293 293 290 293 293 295 299 297 300 304 305 305 306 309 310 316 319 318 318 319 321 321 316 311 309 309 309 307 308 305 304 304 303 303 302 302 302 302 300 300 299 298 299 298 297
292 290 289 289 294 293 291 291 294 293 298 300 301 303 303 304 306 308 309 310 311 311 311 312 312 310 311 309 309 306 305 304 304 303 303 302 303 303 301 300 299 299 298 298 298 297 297 297 298
294 291 290 293 296 293 291 291 297 298 299 300 302 302 303 303 305 306 307 307 308 309 310 307 307 307 306 306 306 305 304 303 302 301 300 302 301 300 300 299 298 298 298 298 297 296 296 297 296
294 291 291 291 293 293 291 289 293 299 301 303 302 303 304 303 303 305 307 307 307 305 305 306 305 306 306 306 305 304 304 303 300 298 298 299 299 299 299 299 298 297 297 296 295 295 294 293 295
292 297 295 293 290 285 290 282 291 294 295 299 300 301 302 303 305 307 306 304 303 303 304 305 306 305 306 305 304 303 301 300 299 297 296 297 298 298 298 298 298 296 296 294 294 295 293 292 290
294 297 294 293 289 287 290 285 287 295 293 296 298 301 302 305 305 304 304 304 305 304 303 304 305 305 305 304 304 302 300 300 298 297 296 296 296 297 297 297 296 295 294 293 293 292 291 292 291
298 296 295 293 290 283 290 286 285 289 294 296 298 302 304 304 304 304 304 305 305 304 302 302 304 304 304 303 302 301 298 297 295 295 294 294 294 294 294 295 295 294 294 293 292 292 291 290 289
296 291 282 282 281 281 291 288 288 294 297 299 298 299 300 301 302 303 305 305 305 303 301 302 303 303 303 301 300 299 297 296 295 295 293 292 293 292 292 293 294 293 293 293 293 291 290 289 288
293 291 282 281 278 281 290 285 289 296 299 301 300 300 300 300 302 303 302 301 301 302 301 300 302 301 301 300 299 298 298 296 296 295 293 292 293 292 292 291 294 294 294 293 292 290 289 288 288
293 287 292 285 282 280 285 289 295 297 298 299 299 300 299 298 298 299 300 300 300 300 300 299 299 299 299 298 297 297 297 296 295 294 293 292 292 293 292 291 292 292 294 292 291 289 288 287 287
293 296 286 284 278 278 282 285 286 292 295 298 296 296 297 298 298 299 299 300 300 301 299 298 298 298 297 297 296 295 294 295 294 293 292 292 292 292 292 291 291 292 292 291 290 287 287 286 286
292 289 289 288 283 278 275 281 290 294 296 294 295 296 298 298 298 298 298 299 299 297 295 295 295 296 295 295 294 293 293 292 293 292 292 292 291 291 292 293 292 290 288 288 286 286 285 284 282
293 291 289 279 281 280 278 280 292 295 296 297 296 297 297 298 297 297 299 298 297 295 294 294 294 293 294 294 293 292 291 291 291 291 292 291 291 292 291 291 292 291 288 287 286 285 284 282 281

GFSSGP_sfc_thetae_030.txt.gz
Theta_e
314 304 304 304 296 295 290 293 302 305 308 315 319 318 317 321 314 307 333 339 342 341 343 345 347 349 349 348 348 347 346 345 343 342 342 341 340 339 340 339 337 336 336 335 335 335 334 333 332
306 306 302 297 292 288 291 297 305 309 315 319 319 320 319 319 328 329 332 342 342 341 343 344 346 347 348 348 347 346 345 344 343 342 341 339 338 339 337 336 336 335 334 333 333 332 331 330 330
308 304 296 292 289 288 291 303 309 313 314 313 311 315 319 322 330 330 338 342 341 341 342 344 345 346 347 347 346 346 345 344 343 341 339 338 338 336 336 335 335 333 332 331 331 330 329 328 328
303 298 294 290 285 291 296 306 312 311 314 316 315 310 317 329 330 335 341 341 339 341 342 341 342 344 346 346 345 345 345 344 342 340 338 338 336 335 334 333 333 331 330 330 329 328 328 327 329
299 293 288 286 288 295 299 311 313 310 311 312 314 310 315 331 336 338 339 340 338 339 341 340 340 343 345 345 344 344 343 341 341 340 339 336 335 334 333 332 331 330 328 328 328 328 328 329 329
296 293 286 289 294 299 306 313 313 311 312 313 314 310 314 333 334 335 337 336 338 337 339 338 342 343 343 344 343 341 340 339 340 340 339 336 336 334 332 331 330 329 328 328 329 328 328 330 330
293 289 287 294 297 298 303 312 311 310 311 311 312 308 320 327 332 335 335 336 337 335 332 333 336 339 340 339 338 337 337 337 337 337 337 336 334 334 333 332 331 330 330 331 332 331 331 331 330
295 292 288 289 298 300 303 308 315 312 311 314 317 312 317 320 331 330 331 329 326 327 328 327 330 330 329 331 335 335 335 335 335 335 334 332 332 332 332 331 330 332 332 332 332 332 331 330 330
296 291 287 288 298 303 308 306 306 312 310 312 310 315 321 324 325 324 319 318 319 324 324 324 325 325 324 326 331 334 335 334 333 333 332 329 324 324 325 329 331 332 332 332 331 331 329 328 323
294 290 292 295 304 304 305 306 307 309 308 306 307 313 320 321 322 319 318 317 317 319 321 322 322 322 323 327 326 326 329 328 327 327 326 324 323 323 326 326 328 328 327 325 326 324 323 318 314
294 292 295 296 299 303 301 303 307 308 305 307 307 311 316 317 315 315 314 315 317 318 320 322 322 321 321 323 323 323 324 324 324 325 324 323 323 322 322 320 317 315 317 313 314 313 312 311 311
291 296 295 295 298 299 301 301 306 302 306 311 313 313 314 314 312 311 311 312 313 316 318 321 321 320 320 321 322 321 322 323 323 325 325 321 319 315 315 312 312 312 312 311 310 310 310 309 310
294 294 295 295 296 296 297 298 305 296 308 310 313 312 312 312 311 311 311 313 313 315 317 320 321 321 321 320 321 320 321 323 323 324 322 319 314 313 313 312 311 310 310 308 307 307 306 305 306
295 293 293 295 294 296 296 294 296 300 308 307 311 310 311 312 312 310 311 313 315 317 318 320 320 322 321 319 319 319 321 321 322 320 318 317 315 313 311 308 307 306 305 305 305 304 304 303 304
294 292 294 294 293 294 296 291 291 304 308 306 307 309 309 309 308 309 310 312 316 318 320 321 322 321 319 316 316 318 317 318 317 314 314 313 311 307 305 304 303 303 303 303 303 302 303 301 302
293 291 287 292 293 293 293 287 292 307 307 305 305 306 308 309 310 310 310 311 316 319 322 324 324 321 319 318 317 314 313 313 311 309 307 306 305 304 302 301 301 301 301 301 300 300 300 299 298
290 285 287 290 293 293 291 288 293 305 307 304 304 305 307 308 308 309 314 311 317 322 322 321 322 319 317 314 313 310 309 307 305 304 303 303 303 303 301 300 300 301 300 299 299 298 298 297 298
285 286 285 287 291 291 290 289 295 295 305 300 301 303 304 304 304 307 313 317 317 319 321 322 318 316 314 313 311 308 305 303 302 301 301 301 303 304 303 302 299 300 299 299 298 297 298 297 297
291 289 287 287 292 291 291 292 294 294 298 299 300 301 302 302 304 306 308 310 311 313 317 318 314 314 314 311 306 303 302 300 300 300 301 303 302 301 299 299 299 298 297 297 297 296 296 296 296
292 289 288 291 294 292 291 291 295 297 297 299 299 300 300 301 303 306 306 307 309 312 314 314 312 312 308 306 304 303 301 299 298 298 299 299 299 300 299 298 297 296 295 294 295 294 293 294 294
293 290 289 290 291 292 290 288 292 297 299 301 301 301 301 302 303 305 307 308 309 308 305 305 305 305 305 305 304 302 301 300 297 296 296 297 299 299 298 297 296 295 295 294 293 292 291 290 292
289 295 293 291 288 285 288 282 288 292 295 298 299 299 299 301 304 305 305 303 302 301 303 303 304 304 304 304 302 301 299 298 297 296 295 296 297 297 297 297 296 295 294 293 293 294 292 291 289
292 296 293 291 288 287 289 284 286 294 293 296 297 299 299 301 303 303 302 302 302 302 303 302 304 304 304 303 302 301 298 297 296 295 295 295 295 296 296 296 295 294 294 293 292 291 291 291 289
297 295 293 291 288 282 288 285 284 289 293 296 298 300 301 301 301 303 303 303 302 302 303 304 305 303 303 303 302 300 297 296 295 295 294 293 294 294 294 294 294 293 293 292 292 291 290 289 288
294 290 281 281 280 281 289 286 287 292 295 298 298 299 301 301 301 301 302 303 304 303 302 303 302 301 301 300 299 298 297 296 296 295 294 292 292 292 292 291 293 293 293 292 292 291 289 288 287
290 290 283 281 278 281 288 284 288 295 297 300 300 300 300 299 301 302 303 301 301 301 300 301 301 301 300 299 298 298 297 296 295 294 293 292 291 292 292 291 291 292 293 292 293 290 289 289 288
291 286 290 284 282 279 283 288 293 295 295 297 299 299 298 298 300 300 300 299 299 298 298 299 299 299 298 298 297 296 296 295 294 294 292 292 292 293 292 291 290 291 292 294 293 291 289 287 287
291 294 285 283 277 278 280 283 285 291 293 296 296 296 297 297 297 298 298 298 298 297 296 298 298 297 298 296 295 294 293 292 292 292 292 292 291 291 291 291 292 292 291 290 291 290 289 287 286
291 288 287 286 281 277 274 281 289 294 295 295 295 296 296 296 296 296 296 296 296 295 295 294 294 295 294 293 293 292 291 291 290 290 291 291 291 291 291 291 290 289 289 290 287 287 286 285 283
291 289 287 279 280 279 278 280 290 293 296 296 295 296 296 296 295 295 296 295 294 294 294 293 293 293 291 292 291 290 290 290 290 289 289 290 290 290 290 290 289 290 291 289 286 285 285 282 281

GFSSGP_sfc_thetae_033.txt.gz
Theta_e
317 309 311 310 301 302 297 296 305 310 312 320 323 320 318 321 315 310 336 341 343 343 347 347 345 349 349 348 348 348 346 344 343 343 342 340 340 340 338 337 339 336 335 334 333 332 331 330 330
310 310 309 306 298 295 297 300 307 313 318 323 321 321 315 311 329 331 334 342 343 344 346 346 345 347 348 348 348 347 345 344 342 342 340 339 339 338 337 336 338 336 333 332 331 330 329 328 329
312 308 305 301 297 294 297 309 314 317 320 315 314 320 319 315 330 332 340 343 344 344 346 347 345 346 347 347 346 346 345 344 343 342 339 338 337 336 335 335 336 334 331 332 331 330 327 327 329
309 306 302 298 294 297 301 313 315 313 315 316 316 312 323 332 332 336 342 343 343 344 346 344 343 345 346 347 346 345 344 343 342 341 339 337 336 334 334 334 334 331 331 331 331 330 329 330 331
306 302 297 295 296 301 304 314 315 312 312 314 316 311 318 332 338 341 341 341 340 342 345 346 341 344 346 346 344 344 343 342 341 340 340 337 334 333 332 332 331 331 330 331 331 330 330 331 331
304 300 295 297 300 304 312 316 314 313 314 314 314 315 319 336 337 338 341 341 342 340 343 344 342 343 343 344 344 342 340 340 340 340 339 337 336 334 332 331 331 331 331 331 331 331 331 331 330
301 298 294 301 301 303 310 317 313 313 313 313 318 315 323 331 334 336 336 338 339 339 340 342 343 343 340 340 339 338 337 338 338 338 337 336 334 334 334 333 333 332 332 332 332 332 332 331 329
303 299 296 302 302 302 309 313 315 313 311 317 322 315 318 327 335 335 336 337 336 337 339 340 341 342 342 340 336 335 335 335 335 335 334 332 332 332 333 330 332 333 333 332 332 332 331 327 326
302 298 293 296 303 305 312 310 314 316 313 314 312 323 327 331 333 329 328 329 332 334 335 336 336 338 337 336 335 334 335 334 334 334 332 330 332 332 332 330 332 332 329 329 328 327 324 323 323
301 297 296 299 307 307 309 311 311 312 311 309 314 323 329 328 329 327 326 327 329 330 330 331 333 332 332 331 334 335 334 333 334 333 334 333 333 333 332 330 327 325 324 323 323 321 322 322 320
300 298 299 300 309 310 309 307 313 311 309 311 313 321 326 325 326 326 327 326 325 327 327 328 330 330 330 329 331 331 333 333 333 333 333 334 333 334 333 329 325 325 322 321 321 320 317 317 316
298 299 299 299 302 305 307 309 311 313 311 316 320 324 324 324 324 324 322 321 321 322 325 327 328 328 328 329 330 330 331 332 333 334 334 333 330 326 323 322 321 320 319 318 317 315 316 315 314
298 298 298 298 301 304 305 308 311 308 311 318 321 322 322 323 321 321 320 319 320 321 324 326 328 327 327 327 329 329 330 331 332 332 329 327 324 323 321 318 316 315 315 315 314 314 313 312 312
299 297 297 298 299 299 301 300 307 306 313 316 318 318 318 318 317 316 314 316 318 321 323 326 327 328 328 327 327 329 330 330 331 327 326 326 324 320 316 314 312 311 312 312 310 310 310 309 309
298 296 298 298 299 298 300 297 298 309 312 314 315 314 314 314 315 315 316 317 320 322 325 326 326 326 324 324 322 320 320 323 321 321 319 318 316 314 313 311 310 309 310 310 309 309 309 308 308
297 297 293 297 299 298 299 293 297 310 309 310 311 311 312 313 315 316 318 319 322 324 328 327 325 322 321 319 317 316 315 315 315 315 313 313 312 312 311 309 308 309 309 309 308 307 306 306 307
295 291 293 295 299 298 298 294 300 310 309 307 309 310 311 313 313 314 320 321 323 327 326 325 324 321 321 315 313 311 311 311 310 310 310 310 309 309 309 308 308 308 307 306 305 304 305 304 303
292 292 293 294 297 297 296 297 300 299 309 307 307 309 310 310 309 313 319 322 325 326 325 323 321 318 314 313 312 310 308 307 309 309 308 309 309 309 309 307 306 305 304 303 304 303 303 304 301
294 294 293 295 297 299 297 297 299 300 305 306 307 308 309 309 310 314 317 321 322 323 322 322 316 315 316 313 309 308 308 307 307 308 308 308 308 308 307 305 305 304 302 302 303 302 300 300 301
295 294 294 296 296 298 296 297 300 302 302 305 307 307 308 309 312 313 315 319 323 320 317 319 322 317 316 313 313 312 309 308 307 306 306 307 307 306 305 305 304 303 302 302 302 301 298 299 300
296 295 294 294 296 297 296 295 297 300 303 303 305 307 309 312 311 312 315 318 320 319 321 320 317 317 315 313 311 309 308 306 305 305 305 306 306 305 305 304 305 304 304 301 302 301 297 295 298
294 298 296 295 294 291 294 290 294 298 299 301 304 307 309 309 310 311 311 311 311 311 313 315 314 313 312 312 311 310 310 308 307 306 306 305 305 305 304 304 304 304 304 301 301 301 299 298 294
296 299 297 295 294 294 294 292 293 298 297 300 303 305 306 308 309 308 308 308 309 310 311 312 312 311 311 311 311 311 308 307 306 306 304 305 304 304 303 303 303 303 302 301 301 300 299 299 296
300 299 297 296 294 289 292 291 292 295 298 301 304 305 305 307 308 308 308 309 309 310 310 311 312 310 311 310 310 309 308 306 306 306 305 305 304 303 303 302 303 303 302 301 301 300 299 298 297
299 296 289 288 289 287 292 290 294 296 299 304 304 304 305 307 308 307 307 307 308 309 310 311 311 309 309 309 309 308 308 307 306 305 304 303 303 302 303 302 301 301 301 301 300 300 299 298 296
295 296 290 282 284 288 291 289 294 299 301 306 306 306 306 307 307 307 308 309 309 308 308 310 309 307 307 307 307 308 307 306 304 303 302 302 301 301 302 301 300 299 299 300 300 299 298 299 297
295 291 295 288 285 286 289 293 297 298 299 302 304 304 305 306 306 307 308 308 308 307 307 308 307 306 305 306 306 304 303 303 303 302 301 301 301 300 300 301 300 299 299 299 299 297 296 297 296
297 297 290 289 282 281 285 287 291 295 297 300 302 303 305 305 305 306 306 305 305 305 304 306 305 304 304 304 303 301 301 300 300 300 299 299 299 300 299 299 300 299 298 297 295 294 294 293 294
295 292 290 291 287 282 281 286 296 297 299 300 303 304 303 303 303 304 303 304 303 301 302 303 301 302 301 300 300 299 298 298 298 297 298 298 298 298 297 297 297 297 294 295 295 294 292 290 291
296 294 292 287 284 285 285 287 295 298 301 302 303 301 302 302 302 301 301 301 300 300 299 298 299 297 298 299 298 297 297 297 297 296 296 296 295 296 295 296 295 295 294 293 292 290 291 290 288

GFSSGP_sfc_thetae_039.txt.gz
Theta_e
324 321 318 315 305 307 304 306 312 316 318 325 325 324 324 327 322 317 338 342 344 344 345 346 347 348 348 348 348 348 346 345 344 343 342 341 339 338 338 339 339 335 333 331 330 332 332 332 332
321 315 314 313 303 301 304 309 310 319 320 322 323 322 319 322 332 334 336 342 345 344 345 346 345 347 348 348 348 347 345 344 342 341 340 338 337 337 336 335 337 335 333 330 332 332 332 332 331
316 315 310 306 304 301 302 314 319 318 322 320 317 323 320 323 331 334 341 344 344 344 344 346 345 346 348 348 347 346 345 344 342 342 338 336 336 335 334 335 337 336 333 332 332 332 332 332 332
314 311 311 304 302 305 306 315 316 319 320 321 319 314 323 330 326 336 344 344 343 344 345 343 342 345 347 347 346 344 343 343 342 341 338 335 334 333 334 336 337 334 333 333 332 332 332 332 332
314 311 303 302 303 306 309 320 318 316 318 317 318 315 315 327 328 336 342 344 342 342 344 345 340 344 345 346 344 343 342 342 342 340 338 335 333 333 333 334 334 333 332 332 332 332 332 331 330
307 309 301 300 303 309 312 320 318 316 318 317 315 316 323 334 331 331 340 339 341 340 343 344 343 343 344 345 343 342 341 341 341 340 338 335 334 334 333 333 333 333 333 333 332 332 330 329 328
306 305 301 303 305 309 312 319 316 315 313 313 319 315 327 333 337 339 336 332 340 342 342 342 344 344 342 341 339 338 339 339 339 339 337 336 336 336 335 334 333 333 333 332 331 329 328 327 326
310 307 302 304 305 307 315 317 317 316 315 320 322 313 319 332 339 336 336 336 339 342 341 340 340 339 340 339 337 337 337 337 337 336 334 333 333 333 334 335 333 331 331 330 327 326 325 325 324
313 304 301 304 308 310 316 313 317 319 315 317 322 324 331 337 338 335 334 336 338 338 334 335 335 336 335 334 335 335 337 336 335 333 333 330 331 332 333 330 329 328 328 326 324 325 324 325 324
306 302 303 314 312 307 315 313 313 312 311 311 318 328 335 335 335 333 333 333 335 330 332 334 335 334 334 328 332 332 332 332 334 334 334 335 335 335 332 329 328 327 326 325 324 325 324 325 323
307 303 307 308 313 312 311 311 315 312 310 315 316 328 330 332 333 333 333 334 329 331 331 332 334 334 331 331 330 331 333 335 336 337 336 338 336 336 334 332 329 331 326 327 325 325 323 323 322
303 307 308 308 310 312 310 314 313 313 314 319 323 331 331 331 331 332 332 328 326 328 328 329 331 331 331 330 330 332 333 334 335 337 338 337 334 335 333 330 330 328 326 326 325 323 323 322 321
304 307 306 307 310 311 312 311 312 313 316 318 327 331 331 330 331 331 325 325 327 325 326 327 329 331 333 333 335 335 336 340 340 339 337 336 333 333 331 330 327 325 324 322 321 320 319 319 319
308 307 305 308 310 312 310 311 313 315 318 320 326 326 327 328 325 322 322 324 325 325 328 329 329 332 333 335 336 339 341 339 336 335 333 332 332 333 330 328 324 321 320 319 318 317 315 314 314
305 301 304 304 308 309 312 307 309 316 318 319 323 323 322 322 320 319 322 324 327 327 330 332 333 334 334 333 332 330 330 330 331 330 329 329 329 327 325 320 317 317 318 318 315 313 312 311 310
302 302 298 305 308 309 310 300 308 315 316 315 317 317 315 316 317 320 322 325 328 330 331 333 333 332 330 329 327 325 325 325 324 325 325 324 322 321 321 317 315 316 315 313 311 309 308 308 307
301 296 298 301 308 307 307 301 308 314 315 314 315 316 315 315 317 320 321 323 327 331 332 331 332 329 327 323 320 318 318 319 320 320 318 317 316 317 317 316 313 313 311 310 309 307 307 305 305
296 297 299 298 303 304 301 302 307 312 313 314 315 315 316 316 316 321 324 324 325 331 332 332 330 330 327 325 323 317 315 315 317 315 314 315 316 317 316 313 313 311 310 308 307 306 306 305 304
300 299 298 301 303 301 301 302 305 310 311 312 315 316 317 318 321 324 327 327 327 333 331 329 328 328 326 322 320 316 315 313 314 314 317 317 317 314 313 312 311 310 308 307 308 306 305 304 305
300 299 298 302 303 302 301 301 305 309 310 312 313 316 317 319 321 323 327 328 329 331 330 330 329 327 329 322 324 323 319 317 318 317 318 318 315 313 311 311 309 309 307 307 307 306 304 303 303
300 299 299 299 302 303 303 301 304 308 312 314 315 317 318 319 320 323 326 328 329 328 328 330 329 330 328 328 323 321 320 319 316 316 316 315 313 312 311 310 309 308 308 306 306 306 304 300 302
298 304 302 300 300 295 304 293 302 306 307 311 313 316 317 319 321 324 326 326 328 329 332 330 328 328 325 323 320 318 315 314 316 316 316 315 313 311 310 308 309 309 308 307 306 305 305 303 299
301 305 303 302 300 299 300 296 298 306 304 307 311 315 318 320 322 324 326 328 329 329 328 328 327 324 322 321 320 319 317 318 318 317 314 313 312 311 309 309 309 308 307 307 307 307 305 303 300
306 303 303 303 300 293 298 297 297 301 305 308 311 314 318 321 323 322 324 324 323 326 326 324 322 320 321 320 320 319 317 314 312 313 310 309 308 308 309 308 308 308 306 306 306 306 303 302 302
305 301 294 292 292 291 300 296 298 304 307 309 310 314 318 320 320 318 318 318 319 321 321 320 319 317 319 319 319 317 315 312 309 309 308 306 306 306 307 307 305 303 303 302 303 303 304 302 301
302 301 294 286 288 291 299 292 300 308 309 311 314 316 317 318 318 316 316 316 317 318 319 319 318 316 318 317 316 314 311 309 309 308 307 306 305 304 304 303 302 301 301 301 302 302 303 302 301
301 297 303 296 297 292 294 299 306 307 307 310 312 315 315 316 316 315 315 316 317 318 319 319 317 316 315 314 312 310 310 308 307 306 306 304 304 302 301 301 300 300 300 300 300 300 301 301 300
304 305 296 296 287 285 292 293 297 301 303 308 311 313 314 316 315 315 316 317 318 318 319 320 318 314 312 311 310 308 308 307 305 305 303 302 302 301 300 299 299 299 299 299 299 299 299 298 298
301 299 299 299 297 289 287 294 302 301 305 306 310 313 315 315 315 315 316 317 318 318 318 317 314 311 310 308 307 308 306 304 303 303 302 300 301 300 298 298 299 298 298 299 298 298 297 295 295
304 301 301 294 291 294 294 293 303 305 306 308 309 313 315 315 315 316 316 317 317 316 315 313 310 308 307 305 304 305 304 303 302 301 300 300 299 299 298 298 298 298 297 297 295 294 293 293 292

GFSSGP_sfc_thetae_045.txt.gz
Theta_e
320 318 313 306 292 291 289 294 313 313 313 318 327 323 321 323 319 311 337 338 340 343 346 346 346 347 348 348 348 347 346 344 341 342 342 341 340 339 338 338 338 338 335 335 334 333 332 332 332
312 314 307 299 287 284 289 305 309 312 317 320 320 324 321 319 329 331 334 339 341 343 344 345 345 347 347 347 347 345 345 342 342 342 340 340 338 337 336 338 338 338 334 334 333 333 332 332 331
316 313 296 291 287 286 289 308 312 316 319 317 315 320 321 319 331 334 339 340 339 340 343 345 345 345 346 346 345 344 343 342 341 339 339 336 336 336 336 338 337 337 334 334 333 332 331 331 332
307 301 297 289 288 294 298 307 312 313 315 318 318 315 319 321 326 335 339 340 338 340 342 342 342 343 345 346 344 343 342 339 338 338 338 337 336 336 336 338 337 335 334 333 332 331 330 332 331
304 299 290 289 291 298 309 311 313 312 313 313 313 311 312 321 335 337 339 341 338 339 340 340 339 342 345 345 343 342 340 338 338 338 338 337 336 335 335 337 336 334 333 332 331 330 330 330 329
298 296 287 287 294 304 312 313 314 312 313 313 312 312 313 325 332 335 337 336 337 336 337 338 340 342 342 342 341 340 339 338 337 337 337 337 336 336 336 336 336 334 333 332 330 329 329 328 328
295 291 289 290 294 304 309 315 312 313 313 312 316 314 317 324 331 332 332 332 332 334 334 336 339 340 339 338 338 337 337 337 336 336 336 336 335 336 337 336 335 334 332 330 329 328 327 327 325
298 293 289 292 294 301 311 313 313 312 310 318 318 312 312 325 329 326 328 331 331 333 334 335 336 335 333 334 335 335 335 334 334 334 334 333 334 335 334 333 333 333 331 329 326 327 325 325 324
300 290 290 292 302 305 311 310 315 316 313 318 323 321 326 323 329 326 324 327 329 332 334 334 334 332 332 332 335 334 335 333 332 332 332 329 328 329 330 329 331 331 329 327 327 325 324 326 324
295 289 293 299 307 306 308 309 312 312 312 315 322 326 323 320 323 323 319 318 323 328 330 331 333 330 329 331 330 329 330 327 326 327 327 325 326 327 326 327 329 329 328 326 326 324 325 322 315
296 294 299 305 309 308 305 306 312 309 305 306 316 322 321 321 320 322 318 320 324 328 328 331 332 327 324 327 326 327 326 326 326 326 326 328 329 327 325 321 322 321 326 320 320 317 315 313 313
294 299 301 308 310 307 305 309 309 307 309 315 318 324 325 325 324 324 321 320 325 327 326 326 326 323 324 326 325 326 326 328 329 331 331 330 328 326 326 323 324 318 316 313 313 310 310 310 309
297 300 302 311 309 308 310 307 310 308 311 315 318 318 322 325 324 326 325 326 326 324 324 323 325 323 324 324 328 329 329 330 330 329 329 329 327 324 321 315 314 313 312 311 309 306 308 306 306
302 301 300 303 305 308 308 308 311 311 311 314 316 313 317 323 325 325 324 322 322 322 322 321 324 324 330 328 328 329 329 328 327 326 325 326 323 317 315 313 312 312 310 308 305 304 303 302 303
303 297 300 301 304 304 309 303 305 311 310 314 317 322 323 321 324 322 323 319 320 321 321 321 324 329 325 323 323 323 325 324 324 323 323 322 317 315 313 312 309 309 309 305 304 302 301 300 301
299 296 292 299 304 307 306 296 303 311 316 316 320 320 319 315 316 319 319 319 320 320 320 323 329 324 322 320 319 319 318 320 320 319 318 317 316 314 311 309 307 307 305 304 302 300 300 298 298
294 290 294 297 303 305 303 297 303 309 315 313 313 314 312 310 316 318 319 320 320 322 324 324 323 320 320 319 317 317 316 316 316 314 312 313 313 313 311 306 304 306 304 302 301 300 299 297 298
292 292 290 294 299 303 298 297 301 306 312 311 310 310 310 309 313 318 319 321 322 325 324 322 321 319 318 317 317 315 314 313 313 310 309 310 311 311 307 306 304 304 302 300 300 299 299 298 297
297 295 293 296 300 297 298 297 300 303 307 306 307 307 306 307 313 317 318 322 324 325 323 321 319 319 319 315 313 311 309 309 308 308 310 311 311 308 307 305 304 302 301 299 300 299 297 297 297
298 296 296 298 299 296 294 295 299 303 305 307 306 304 304 306 311 313 313 323 324 323 322 321 319 319 319 317 314 313 309 308 308 308 309 311 310 307 305 303 302 301 300 300 299 298 296 296 296
298 296 296 296 299 297 294 291 295 300 303 308 309 309 309 308 311 314 316 323 323 323 322 321 321 320 321 320 316 314 310 308 307 307 308 308 308 307 305 304 302 301 300 299 298 298 297 294 295
295 302 301 298 295 288 296 285 294 297 301 305 308 308 309 310 314 316 316 320 323 322 323 323 323 321 322 321 317 312 308 307 307 308 308 306 307 306 305 303 302 301 300 299 298 300 296 296 293
297 302 301 300 297 295 293 288 292 298 297 301 302 306 309 311 315 316 317 321 324 323 323 323 323 322 322 322 317 313 308 308 309 309 308 307 308 307 305 303 301 300 299 297 296 294 294 294 293
304 301 300 298 295 286 293 292 291 295 299 303 306 307 308 310 315 317 320 323 324 324 324 323 323 322 320 317 313 311 310 309 309 310 309 308 307 304 301 300 297 297 296 295 294 294 293 293 293
300 295 287 284 284 284 296 292 293 300 303 304 304 306 307 311 312 317 320 320 321 321 322 322 322 317 315 312 311 311 307 306 305 306 305 303 300 298 298 296 296 295 295 294 294 293 292 292 291
297 296 286 282 283 285 296 290 294 303 304 306 307 306 308 311 315 318 320 319 320 321 320 320 317 316 314 312 311 308 305 303 303 303 302 301 300 299 296 296 295 294 294 294 293 293 292 292 291
298 293 300 291 289 283 288 293 299 302 302 304 305 307 309 311 312 314 316 317 317 315 314 314 314 312 312 311 307 304 303 303 301 301 302 300 299 298 297 296 293 293 294 294 293 292 291 291 291
299 301 290 290 281 279 286 288 291 297 301 304 304 307 309 311 311 312 312 313 313 313 313 312 311 310 310 306 305 303 303 301 302 300 300 299 298 297 296 293 293 293 293 293 291 291 291 290 289
296 294 295 293 290 282 279 285 295 298 300 302 304 308 309 309 310 309 309 312 312 312 312 312 310 310 307 305 303 302 300 302 303 301 299 298 296 296 294 293 293 293 293 292 290 290 290 289 288
299 296 296 284 286 287 283 285 297 298 301 302 303 309 310 311 310 309 308 310 310 311 312 311 308 308 306 305 303 302 303 303 301 300 297 297 296 295 293 294 293 294 292 290 290 290 290 289 288

GFSSGP_sfc_thetae_048.txt.gz
Theta_e
319 319 310 304 292 289 286 291 310 311 310 319 325 322 321 322 317 309 334 337 343 344 345 346 346 347 348 348 348 346 344 342 340 340 340 340 339 338 339 339 339 337 334 334 333 332 332 333 334
310 311 305 296 286 282 286 296 305 311 315 322 322 323 320 320 330 330 332 340 343 345 345 345 345 346 347 347 346 344 342 340 341 339 338 339 337 337 337 338 337 337 334 334 332 331 330 331 334
313 311 297 291 284 284 285 304 311 315 317 315 315 320 320 321 331 332 336 341 342 342 343 344 344 345 346 345 344 343 342 341 340 339 338 337 336 336 336 338 337 336 333 332 331 330 329 332 332
304 299 295 288 287 291 294 297 312 311 313 317 317 312 316 323 326 336 338 341 341 342 343 342 343 344 345 344 343 342 341 339 338 339 339 337 337 336 336 337 336 335 332 331 330 329 330 331 331
301 295 288 285 289 298 309 312 313 310 311 312 312 309 310 329 336 338 338 339 339 341 341 340 340 342 343 344 342 340 339 337 338 339 339 338 335 335 335 337 336 335 331 331 330 329 330 330 330
297 293 286 286 291 304 310 313 314 312 313 312 311 311 313 332 333 333 334 336 337 335 337 339 340 339 340 341 340 338 337 337 338 338 338 337 336 336 335 336 335 334 331 330 329 330 329 329 328
294 290 287 290 292 294 309 314 311 312 312 311 315 310 317 325 331 332 331 333 334 333 331 331 333 337 339 337 337 336 336 336 336 336 336 336 336 336 336 336 335 333 332 331 330 328 327 328 327
295 292 287 289 290 296 310 311 313 312 311 319 319 309 311 324 328 329 329 328 329 330 329 328 332 334 334 334 335 334 334 334 334 334 334 333 334 334 334 334 334 333 331 329 328 326 326 326 326
298 290 287 289 297 303 310 308 314 316 314 317 323 319 323 323 326 326 325 325 326 326 327 328 330 331 331 332 333 334 334 333 332 333 332 330 328 327 325 329 331 331 328 326 327 328 326 323 322
294 289 291 296 303 306 308 306 309 309 310 313 315 321 323 322 322 320 321 322 324 325 327 330 330 330 330 331 329 328 328 326 326 326 325 324 325 326 325 328 330 329 327 326 326 324 321 317 312
294 291 296 298 308 306 305 303 310 307 305 308 313 315 320 320 318 319 322 323 322 325 329 330 329 328 326 327 326 325 323 323 324 324 323 324 326 325 322 321 320 319 321 314 313 311 310 308 307
292 297 298 302 309 305 303 307 307 306 306 316 320 318 320 320 317 319 321 322 324 326 328 330 328 324 321 324 324 323 323 324 325 327 327 325 325 324 321 318 316 314 312 310 307 307 306 304 304
295 298 300 306 307 306 309 306 307 305 314 320 322 320 319 321 318 321 321 322 325 325 326 329 326 321 323 322 322 324 326 328 327 326 327 327 324 319 315 314 312 310 309 306 304 303 302 302 301
302 302 302 305 307 308 305 306 305 306 313 317 319 320 320 320 320 320 319 320 324 325 324 327 322 320 325 325 326 326 327 326 324 323 322 323 319 314 312 310 309 307 306 304 302 299 299 299 299
303 296 298 304 305 305 307 301 300 309 312 312 312 313 316 322 322 319 320 322 325 323 322 322 324 326 325 324 326 324 324 323 321 321 319 316 315 312 310 308 307 306 303 302 300 299 299 298 299
298 294 290 297 303 305 300 294 302 308 310 309 313 316 318 322 322 322 323 324 323 321 320 326 328 322 321 319 320 319 319 319 319 318 316 315 314 311 308 306 305 305 303 301 299 298 298 297 297
294 287 292 295 302 304 300 294 303 309 312 313 316 317 317 320 321 323 320 321 321 320 322 323 322 320 319 318 316 315 316 316 315 313 312 312 312 310 306 305 304 303 301 300 300 298 297 296 296
289 291 290 292 298 301 299 295 299 310 313 314 313 311 312 317 317 321 318 320 320 320 324 322 320 319 317 316 314 312 312 312 311 309 309 310 310 309 305 304 302 301 300 299 298 297 297 296 296
297 294 293 295 299 298 299 296 298 309 312 310 309 308 308 313 317 317 317 318 318 322 322 320 318 316 316 314 311 310 309 309 308 308 309 310 309 308 305 303 301 300 299 298 299 297 296 295 295
297 294 294 296 299 297 294 294 297 306 310 311 310 308 308 309 313 315 316 317 321 321 321 319 318 317 316 315 312 312 309 308 307 307 308 309 306 305 304 302 300 300 299 298 297 296 295 295 295
295 294 294 295 296 294 291 289 293 300 305 309 311 311 309 307 311 313 316 319 320 319 319 318 318 317 317 316 313 309 307 306 304 304 305 308 306 305 304 302 300 300 299 297 296 296 295 293 293
293 300 299 297 292 286 292 282 291 296 299 305 306 306 306 307 312 313 317 319 320 320 320 319 318 318 318 317 313 309 306 305 305 305 306 306 305 305 304 302 300 300 299 297 297 296 293 293 290
295 299 299 298 293 291 291 287 290 294 294 301 305 305 305 308 310 314 319 320 321 321 320 320 319 318 319 318 315 311 306 306 306 306 306 304 304 304 302 301 299 297 296 295 294 292 291 291 290
302 297 298 296 293 285 291 289 288 292 296 299 304 305 306 306 310 313 320 321 321 321 320 320 320 319 320 319 315 312 308 306 306 305 304 303 302 301 300 298 296 295 295 294 293 291 291 290 290
298 292 284 282 282 283 294 289 291 297 299 301 302 302 305 308 311 312 318 320 320 320 320 320 320 320 320 318 315 311 308 307 307 307 305 300 299 299 298 297 295 295 295 293 292 291 290 290 289
297 293 284 280 281 284 293 287 293 300 301 303 304 301 306 308 312 314 318 320 320 321 321 321 320 319 317 314 311 308 306 305 305 304 303 301 299 298 297 297 296 295 294 292 292 291 291 290 289
296 292 297 289 286 282 288 290 297 300 301 302 301 303 304 307 312 315 317 319 320 320 320 320 321 317 313 312 309 304 302 302 301 301 301 300 299 298 296 294 294 294 292 293 291 290 289 289 288
297 299 290 290 281 280 284 286 289 296 299 301 301 302 307 309 312 314 316 316 318 317 315 312 314 312 312 309 307 305 305 304 302 301 300 299 298 296 296 295 294 292 292 293 291 290 289 288 287
294 292 293 291 287 282 279 284 292 297 300 301 302 305 308 308 310 312 313 314 315 314 310 309 310 311 308 305 305 303 302 304 304 301 300 297 298 297 295 293 292 292 292 292 290 289 289 288 287
298 294 295 284 284 285 281 284 295 298 300 302 303 307 308 310 309 311 312 312 312 312 311 309 308 306 304 303 302 302 303 304 302 300 299 299 297 296 294 294 293 293 292 290 289 289 289 288 287

GFSSGP_sfc_thetae_051.txt.gz
Theta_e
317 315 308 302 291 287 285 290 298 309 310 320 324 322 319 320 314 306 330 335 342 343 346 346 346 346 347 347 346 344 342 339 337 337 339 340 340 340 340 338 338 338 334 334 333 333 336 338 339
310 310 302 293 285 281 285 291 297 304 317 323 320 321 318 318 328 328 330 340 343 344 345 345 345 345 346 346 344 342 340 339 338 339 337 339 338 337 338 338 337 337 336 333 332 332 332 333 336
311 306 296 289 283 282 284 293 308 312 317 315 314 318 318 318 330 330 337 342 343 343 344 343 344 344 345 344 342 341 341 340 340 340 338 338 336 336 335 338 336 336 334 331 332 331 331 333 333
303 297 293 288 285 289 290 304 303 310 313 315 315 310 318 330 330 335 341 343 342 342 343 340 341 343 344 343 343 341 340 339 339 339 339 337 336 335 336 337 336 336 332 330 330 330 333 331 330
298 293 288 284 289 293 308 310 312 308 310 311 311 307 314 331 335 337 338 340 338 339 341 339 339 342 343 343 342 340 339 339 339 339 339 338 336 335 336 336 335 334 333 330 329 332 331 331 329
294 292 285 285 288 298 308 311 313 310 311 311 311 310 316 331 330 335 336 333 332 331 338 338 340 339 339 340 339 338 338 338 338 338 338 337 337 336 336 336 335 334 333 331 331 331 330 329 329
292 290 286 288 290 292 306 313 311 311 310 310 315 309 319 326 330 332 332 331 329 329 329 331 333 335 337 337 336 336 337 337 337 337 336 336 335 335 335 335 334 333 332 331 330 330 330 329 328
295 291 288 288 290 291 307 310 312 310 308 317 319 309 312 324 329 328 329 328 326 325 326 328 332 333 333 332 334 334 335 335 336 336 335 334 334 335 335 334 333 332 330 330 330 328 327 328 326
294 289 286 290 291 298 309 307 313 315 312 318 321 318 322 327 326 324 322 321 321 321 322 323 326 331 331 331 332 334 335 334 333 333 332 329 326 326 324 330 331 330 329 330 328 326 323 321 321
292 287 290 294 295 304 308 306 308 308 312 313 316 321 323 325 323 320 318 317 317 317 319 319 320 327 330 331 329 328 329 328 327 325 325 324 324 322 326 328 330 329 328 326 323 321 317 311 307
292 291 295 296 302 305 305 303 308 306 304 312 315 316 319 321 321 320 319 319 317 320 321 322 321 326 327 327 326 324 323 323 323 323 323 324 325 321 321 319 318 315 316 310 309 307 305 303 304
289 295 296 296 307 305 303 304 305 303 307 317 319 318 317 318 318 320 320 320 320 320 323 328 328 327 323 324 323 322 321 322 322 322 323 323 323 319 317 318 314 310 308 305 305 304 302 301 301
292 298 300 301 306 305 307 305 305 306 317 319 319 318 317 317 319 322 321 320 321 323 326 328 326 325 322 322 320 322 322 323 325 326 327 325 323 320 315 311 310 308 305 303 301 300 300 299 298
300 299 302 305 305 306 304 303 304 307 318 316 317 317 317 317 319 320 319 320 322 324 326 328 325 322 321 321 321 322 325 326 324 322 324 323 317 313 310 308 306 304 302 301 299 298 298 297 297
301 294 300 303 304 304 304 297 299 311 317 314 314 316 318 317 318 318 319 319 324 325 325 327 323 320 322 322 323 324 324 322 321 319 318 315 313 311 309 307 306 303 301 300 299 298 297 297 298
297 293 291 299 303 304 300 292 303 311 313 311 312 316 317 317 318 319 319 319 324 322 324 324 323 322 321 321 320 320 319 319 318 316 314 313 312 310 307 306 305 302 300 299 298 297 296 296 296
293 285 289 293 302 301 298 293 301 309 311 309 310 312 317 317 318 318 320 320 324 320 320 322 322 320 319 317 316 316 316 316 315 313 312 311 310 308 305 304 303 301 299 299 299 297 296 295 295
288 290 288 291 298 300 297 295 302 306 310 310 312 314 316 317 318 320 321 322 323 317 322 322 320 318 317 315 314 313 313 312 311 310 310 310 308 306 304 302 301 300 298 298 297 296 296 295 294
294 292 290 292 297 297 296 296 297 307 311 311 311 312 314 317 321 322 322 321 317 317 320 319 317 316 317 314 311 309 309 309 307 307 308 309 307 306 303 301 300 298 298 298 297 296 295 294 294
295 293 292 295 298 297 294 295 295 305 310 312 312 310 310 317 317 319 317 317 316 318 320 318 318 316 317 316 311 311 309 308 307 307 307 308 307 305 303 300 299 298 298 297 296 295 294 294 293
294 292 292 293 295 292 291 290 293 302 308 311 313 313 310 313 315 316 314 315 315 318 319 319 318 317 316 315 311 307 306 305 304 304 305 307 305 305 303 301 299 298 298 296 295 295 294 291 292
291 297 297 295 291 285 290 283 289 294 303 307 310 309 308 311 314 314 313 313 316 318 320 320 319 317 316 315 311 308 306 304 304 304 304 306 305 303 302 300 299 298 298 296 295 294 292 293 289
294 298 296 295 292 289 289 286 288 292 296 301 307 308 308 308 311 312 313 314 317 318 318 318 318 317 317 315 313 309 306 305 304 304 304 304 302 302 301 300 299 297 296 293 292 292 291 291 289
300 296 295 294 291 284 289 287 286 290 294 298 304 308 307 304 310 312 314 316 318 318 318 317 317 317 318 316 314 310 307 305 304 303 303 301 300 299 299 298 297 297 296 293 291 291 290 289 288
296 291 283 281 281 282 291 288 289 295 297 297 300 305 304 304 307 309 313 316 318 318 318 319 317 317 317 317 315 312 308 306 305 304 304 299 297 295 296 297 297 296 295 294 292 291 290 290 288
293 291 283 279 279 282 291 286 291 298 300 300 300 302 303 304 308 311 316 318 318 319 319 320 318 318 317 317 316 313 309 307 306 305 302 299 298 297 296 298 297 296 295 295 294 291 289 288 288
295 290 294 287 285 281 286 290 295 298 299 300 298 300 303 303 307 312 316 318 318 319 320 320 319 319 318 317 316 308 307 305 302 301 301 299 298 298 297 296 295 295 295 294 290 289 288 288 288
296 297 287 287 280 279 283 284 287 294 297 299 298 299 300 304 307 310 316 318 319 319 320 319 320 319 316 312 308 305 303 303 302 302 300 298 298 296 296 296 296 294 294 292 290 288 288 288 287
292 290 290 290 285 280 278 284 290 295 297 299 299 301 305 306 309 312 314 317 319 319 319 318 318 315 308 307 304 303 303 302 302 300 298 297 297 297 298 296 294 293 292 291 289 288 288 288 288
295 293 292 283 283 283 281 283 293 295 298 299 301 303 306 307 310 313 314 315 315 316 316 316 314 312 308 307 305 303 303 301 299 298 297 299 299 298 296 295 293 293 291 290 290 289 288 287 287

GFSSGP_sfc_thetae_054.txt.gz
Theta_e
316 310 306 299 290 287 283 288 292 301 309 321 323 319 317 320 315 305 331 335 342 342 345 344 345 346 346 345 344 342 341 340 337 338 340 341 340 339 339 339 338 338 337 339 341 340 339 340 341
309 308 301 292 285 282 284 288 294 302 313 318 318 319 319 319 328 327 329 340 342 344 344 343 345 345 345 344 342 341 340 340 339 339 339 340 340 339 339 338 337 337 337 336 338 340 341 339 337
307 302 295 288 282 282 283 289 300 309 314 314 312 316 316 320 328 330 337 342 343 342 344 343 343 344 343 342 341 340 340 339 339 340 339 337 338 339 338 337 336 336 336 333 334 335 333 334 334
300 296 292 285 282 289 288 297 308 308 311 312 312 308 320 330 331 334 341 342 341 341 342 341 341 342 343 342 341 340 340 339 339 339 340 338 337 337 338 336 335 336 335 332 331 331 331 332 331
296 292 285 283 284 290 305 309 309 306 308 309 311 308 315 329 336 337 335 335 334 336 340 339 340 341 342 342 341 340 340 339 339 339 338 339 338 337 338 336 335 334 334 333 330 330 330 331 331
294 290 283 282 286 294 308 310 311 309 309 311 311 310 318 330 332 331 331 329 331 331 331 339 340 339 340 340 339 338 338 339 339 338 338 338 337 337 336 335 334 334 333 333 332 331 330 329 328
292 288 283 284 289 291 301 311 310 310 308 307 316 309 319 326 331 329 328 328 328 328 326 328 331 331 336 336 336 337 337 338 337 337 337 336 336 335 335 334 333 333 333 333 332 331 328 329 327
293 289 285 286 288 289 306 310 311 309 307 315 319 310 313 324 329 328 327 326 326 325 323 324 327 330 331 332 335 335 336 336 336 336 335 334 335 335 334 333 332 332 332 330 329 328 327 326 324
292 287 284 286 291 293 309 306 311 313 313 317 320 318 322 326 325 322 321 321 322 324 323 327 322 323 329 330 333 335 336 335 334 334 333 328 326 326 324 330 330 331 329 327 325 321 320 319 319
291 285 289 293 295 298 307 306 306 307 311 314 316 323 324 323 321 319 318 316 318 318 320 323 326 329 329 330 327 328 331 328 327 326 324 323 321 321 326 328 329 327 325 323 320 316 314 309 303
289 289 292 294 296 305 305 306 307 306 306 313 313 319 321 321 319 318 316 314 315 315 318 319 322 327 327 326 325 324 324 322 322 323 323 323 322 320 320 317 315 312 313 307 306 304 302 302 301
289 294 295 295 300 304 303 305 306 303 307 317 319 320 321 320 319 318 316 315 314 315 316 319 321 324 325 325 323 322 321 321 320 321 323 323 319 318 317 314 310 307 305 304 302 301 300 300 300
290 295 299 300 305 304 306 303 304 309 315 319 319 319 318 320 318 321 319 318 317 317 320 322 324 324 323 322 321 321 320 320 321 322 323 324 319 316 314 310 307 304 303 301 300 299 298 298 298
297 297 300 304 304 305 304 303 305 312 318 315 317 315 316 318 319 320 319 318 318 319 321 326 324 323 321 320 319 320 322 322 323 323 324 323 320 314 311 307 304 302 300 299 298 298 297 296 297
299 293 300 302 303 303 303 297 298 313 315 314 315 315 314 317 319 318 319 319 320 321 325 326 324 320 320 319 320 320 323 323 321 320 321 318 315 311 309 305 302 300 299 299 299 297 297 297 297
294 291 291 297 302 302 298 290 301 313 312 312 313 314 315 316 317 319 319 320 322 321 321 324 324 319 318 318 319 319 320 319 318 316 315 313 314 311 307 304 301 301 300 299 298 297 296 296 295
291 285 288 294 301 300 297 290 302 313 312 311 311 313 314 316 316 317 318 317 321 320 321 320 319 318 317 316 316 316 317 316 316 314 314 311 310 308 306 305 302 300 301 298 298 297 296 295 295
286 289 288 289 296 298 296 296 300 310 311 310 310 312 313 314 315 318 317 317 321 318 319 319 319 317 315 313 313 313 313 313 313 311 310 309 308 306 304 302 300 300 298 297 297 296 295 295 294
292 291 289 292 295 296 295 295 299 305 308 306 307 309 312 315 317 318 318 318 319 315 319 319 316 315 315 315 313 310 310 309 309 311 311 308 305 304 303 301 299 298 297 297 296 295 294 294 294
293 291 290 293 296 294 291 292 294 303 305 308 309 310 312 315 317 319 318 318 316 316 319 318 318 316 316 317 310 311 309 309 308 310 308 308 305 303 302 300 298 297 297 296 296 295 294 294 293
292 291 291 291 294 292 290 289 292 299 308 311 312 313 314 314 315 318 318 316 316 315 318 319 318 316 317 315 311 307 308 307 307 304 305 306 305 304 302 300 298 297 297 295 295 295 294 291 291
289 295 294 293 291 285 289 282 287 293 302 308 310 310 312 311 317 317 318 315 316 316 318 319 318 316 316 314 311 308 307 305 305 304 304 305 304 303 301 299 298 297 297 296 294 294 292 291 288
293 297 295 293 290 288 287 284 288 290 294 301 308 310 310 310 314 316 317 317 316 316 317 319 318 316 316 314 313 310 308 308 307 306 304 304 302 301 300 299 298 296 295 293 293 292 291 290 290
298 295 293 292 289 283 287 285 286 288 292 298 305 309 310 308 310 314 316 314 314 314 315 316 317 316 316 315 313 310 309 308 307 303 303 301 299 299 298 298 296 295 294 293 294 292 292 291 289
294 289 282 282 281 281 289 287 289 293 295 296 298 305 309 309 307 309 310 311 312 314 315 316 316 316 316 316 314 313 311 311 307 304 304 299 297 295 295 295 296 295 295 295 293 294 293 292 291
292 290 283 279 279 281 289 285 290 296 298 299 299 298 305 306 306 308 310 312 314 315 316 316 316 317 316 317 316 313 313 309 306 304 303 301 298 295 296 295 295 296 296 295 295 294 292 291 289
293 288 292 285 284 280 284 289 292 295 296 299 298 298 299 300 302 306 309 312 315 316 316 316 317 318 318 317 317 313 311 307 305 303 301 298 296 297 295 296 296 296 297 295 294 292 291 290 288
294 296 287 285 280 279 282 283 285 291 295 297 297 298 298 301 302 305 309 313 316 317 317 317 318 318 318 317 316 314 310 307 304 301 299 298 298 296 296 295 297 297 295 294 293 291 290 288 288
291 289 289 288 284 280 278 282 290 291 295 296 296 299 299 301 304 306 311 315 316 316 317 318 319 318 317 315 313 309 305 303 302 301 299 298 298 298 297 297 296 294 294 293 291 290 289 288 287
293 292 290 283 283 283 280 282 292 292 293 296 298 300 302 305 306 308 310 313 314 316 316 318 318 318 314 311 307 304 303 303 303 299 300 299 299 300 299 297 294 294 293 292 291 289 289 288 287